カタログに戻る

STARLINK-36462

運用中通信VLEO
NORAD 67321·PAYLOAD·🇺🇸 United States

打ち上げ Jan 4, 2026 から Cape Canaveral Space Force Station

Loading…

次のパス (今後24時間)

TLE

最新Source: CelesTrak SupGP

元期: Sep 15, 2026, 03:54 UTC

1 67321C 26002S   26258.16298611  .00051226  00000+0  18558-2 0  2588
2 67321  43.0009 335.4765 0001602 254.4299  99.3375 15.27544959    12

AllMySatでSTARLINK-36462をリアルタイム追跡

Download on the App Store